Terug naar catalogus

COSMOS 1197

ActiefMilitairLEO
NORAD 11880·PAYLOAD·🇷🇺 Russia

Gelanceerd Jul 9, 1980 vanaf Plesetsk Cosmodrome

Loading…

Volgende Passages (komende 24 uur)

TLE

VersSource: Space-Track

Epoch: Sep 14, 2026, 13:16 UTC

1 11880U 80058F   26257.55286722 -.00000006  00000-0  68883-4 0  9992
2 11880  74.0221   5.1003 0013917 289.1581  70.7961 12.46012557100666

Volg COSMOS 1197 in realtime met AllMySat

Download on the App Store